カタログに戻る

STARLINK-32927

運用中通信VLEO
NORAD 63094·PAYLOAD·🇺🇸 United States

打ち上げ Feb 23, 2025 から Vandenberg Space Force Base

Loading…

次のパス (今後24時間)

TLE

最新Source: CelesTrak SupGP

元期: Sep 15, 2026, 02:16 UTC

1 63094C 25037T   26258.09493056 -.00038915  00000+0 -13538-2 0  2585
2 63094  70.0007 235.1060 0003433 266.5935 256.2235 15.29594975    16

AllMySatでSTARLINK-32927をリアルタイム追跡

Download on the App Store